Lyndonville, VT

10:43 AM EDT on May 25, 2017 (GMT -0400)
Lyndonville

Weather History for KCDA - May, 2013

Change the Weather History Date:

Wednesday, May 15, 2013

  Actual Average (K1V4) Record (K1V4)
Temperature  
Mean Temperature 45 °F -  
Max Temperature 64 °F 63 °F 90 °F (1974)
Min Temperature 27 °F 39 °F 22 °F (1913)
Degree Days  
Heating Degree Days 20    
Moisture  
Dew Point 31 °F    
Average Humidity 64    
Maximum Humidity 90    
Minimum Humidity 22    
Precipitation  
Precipitation 0.00 in - - ()
Sea Level Pressure  
Sea Level Pressure 29.85 in    
Wind  
Wind Speed 4 mph (South)    
Max Wind Speed 21 mph    
Max Gust Speed 28 mph    
Visibility 9 miles    
Events Rain    
Averages and records for this station are not official NWS values.
T = Trace of Precipitation, MM = Missing Value Source: NWS Daily Summary

Daily Weather History Graph

Daily Weather History Graph

Search for Another Location

Airport or City:

Trip Planner

Search our weather history database for the weather conditions in past years. The results will help you decide how hot, cold, wet, or windy it might be!

Date:

Astronomy

May. 15, 2013 Rise Set
Actual Time 5:20 AM EDT 8:09 PM EDT
Civil Twilight 4:46 AM EDT 8:43 PM EDT
Nautical Twilight 4:03 AM EDT 9:26 PM EDT
Astronomical Twilight 3:13 AM EDT 10:17 PM EDT
Moon 9:55 AM EDT (5/15) No Moon Set
Length of Visible Light 15h 57m
Length of Day
14h 49m
Waxing Crescent, 26% of the Moon is Illuminated
May 15
Waxing Crescent
May 18
First Quarter
May 25
Full
May 31
Last Quarter
Jun 8
New

Hourly Weather History & Observations

Time (EDT) Temp. Windchill Dew Point Humidity Pressure Visibility Wind Dir Wind Speed Gust Speed Precip Events Conditions
12:15 AM 35.1 °F - 24.6 °F 66% 30.02 in 10.0 mi Calm Calm - N/A   Clear
12:35 AM 34.7 °F - 24.3 °F 66% 30.02 in 10.0 mi Calm Calm - N/A   Clear
12:55 AM 34.7 °F - 24.3 °F 66% 30.02 in 10.0 mi Calm Calm - N/A   Clear
1:15 AM 34.0 °F - 23.9 °F 67% 30.02 in 10.0 mi Calm Calm - N/A   Clear
1:35 AM 32.7 °F - 24.8 °F 73% 30.02 in 10.0 mi Calm Calm - N/A   Clear
1:55 AM 31.1 °F - 24.3 °F 76% 30.02 in 10.0 mi Calm Calm - N/A   Clear
2:35 AM 30.4 °F - 23.7 °F 76% 30.02 in 10.0 mi Calm Calm - N/A   Clear
2:55 AM 29.7 °F - 23.9 °F 79% 30.01 in 10.0 mi Calm Calm - N/A   Clear
3:15 AM 29.8 °F - 24.3 °F 80% 30.01 in 10.0 mi Calm Calm - N/A   Clear
3:35 AM 29.3 °F - 24.4 °F 82% 30.01 in 10.0 mi Calm Calm - N/A   Clear
3:55 AM 29.1 °F - 24.3 °F 82% 30.02 in 10.0 mi Calm Calm - N/A   Clear
4:15 AM 29.1 °F - 24.4 °F 83% 30.02 in 10.0 mi Calm Calm - N/A   Clear
4:35 AM 29.3 °F - 24.4 °F 82% 30.02 in 10.0 mi Calm Calm - N/A   Clear
4:55 AM 29.1 °F - 23.9 °F 81% 30.02 in 10.0 mi Calm Calm - N/A   Clear
5:15 AM 28.2 °F - 23.2 °F 81% 30.02 in 10.0 mi Calm Calm - N/A   Clear
5:35 AM 27.1 °F - 23.0 °F 84% 30.02 in 10.0 mi Calm Calm - N/A   Clear
5:55 AM 28.0 °F - 24.1 °F 85% 30.02 in 10.0 mi Calm Calm - N/A   Clear
6:15 AM 28.9 °F - 24.6 °F 84% 30.02 in 10.0 mi Calm Calm - N/A   Clear
6:35 AM 30.6 °F - 25.7 °F 82% 30.02 in 10.0 mi Calm Calm - N/A   Clear
6:55 AM 32.0 °F - 26.1 °F 79% 30.02 in 10.0 mi Calm Calm - N/A   Clear
7:15 AM 33.3 °F - 27.3 °F 79% 30.02 in 10.0 mi Calm Calm - N/A   Clear
7:35 AM 35.8 °F - 27.0 °F 70% 30.01 in 10.0 mi Calm Calm - N/A   Clear
7:55 AM 36.9 °F - 26.6 °F 66% 30.01 in 10.0 mi Calm Calm - N/A   Clear
8:15 AM 39.4 °F - 27.9 °F 63% 30.00 in 10.0 mi Calm Calm - N/A   Clear
8:35 AM 42.1 °F 39.2 °F 27.1 °F 55% 29.99 in 10.0 mi SSW 4.6 mph - N/A   Clear
8:55 AM 44.4 °F 40.5 °F 26.4 °F 49% 29.98 in 10.0 mi SSE 6.9 mph - N/A   Clear
9:15 AM 45.7 °F 44.4 °F 26.6 °F 47% 29.97 in 10.0 mi SSE 3.5 mph - N/A   Clear
9:35 AM 48.7 °F - 25.5 °F 40% 29.96 in 10.0 mi South 8.1 mph - N/A   Clear
9:55 AM 50.4 °F - 26.1 °F 39% 29.95 in 10.0 mi South 8.1 mph - N/A   Clear
10:15 AM 52.7 °F - 23.9 °F 33% 29.94 in 10.0 mi South 10.4 mph 17.3 mph N/A   Clear
10:35 AM 53.4 °F - 23.4 °F 31% 29.93 in 10.0 mi South 9.2 mph 17.3 mph N/A   Clear
10:55 AM 55.4 °F - 21.6 °F 27% 29.92 in 10.0 mi South 15.0 mph 23.0 mph N/A   Clear
11:15 AM 55.0 °F - 21.0 °F 27% 29.90 in 10.0 mi South 9.2 mph - N/A   Clear
11:35 AM 56.3 °F - 19.8 °F 24% 29.89 in 10.0 mi South 12.7 mph 18.4 mph N/A   Clear
11:55 AM 58.1 °F - 20.8 °F 24% 29.87 in 10.0 mi SSE 8.1 mph 17.3 mph N/A   Clear
12:15 PM 59.2 °F - 21.7 °F 24% 29.86 in 10.0 mi SSE 11.5 mph 24.2 mph N/A   Clear
12:35 PM 60.4 °F - 21.7 °F 23% 29.84 in 10.0 mi SSE 19.6 mph 24.2 mph N/A   Clear
12:55 PM 60.8 °F - 22.5 °F 23% 29.83 in 10.0 mi SSE 15.0 mph 24.2 mph N/A   Clear
1:15 PM 61.7 °F - 22.5 °F 22% 29.82 in 10.0 mi South 20.7 mph 26.5 mph N/A   Clear
1:55 PM 63.5 °F - 24.1 °F 22% 29.77 in 10.0 mi SE 17.3 mph 25.3 mph N/A   Clear
2:15 PM 62.6 °F - 24.4 °F 23% 29.77 in 10.0 mi South 12.7 mph 26.5 mph N/A   Clear
2:35 PM 61.7 °F - 24.4 °F 24% 29.77 in 10.0 mi South 11.5 mph 25.3 mph N/A   Clear
2:55 PM 61.7 °F - 25.3 °F 25% 29.75 in 10.0 mi South 12.7 mph 20.7 mph N/A   Scattered Clouds
3:15 PM 63.7 °F - 25.9 °F 24% 29.72 in 10.0 mi South 17.3 mph 24.2 mph N/A   Scattered Clouds
3:35 PM 61.9 °F - 25.9 °F 25% 29.72 in 10.0 mi South 12.7 mph 24.2 mph N/A   Scattered Clouds
3:55 PM 59.9 °F - 28.4 °F 30% 29.69 in 10.0 mi South 11.5 mph 19.6 mph N/A   Mostly Cloudy
4:15 PM 54.7 °F - 38.7 °F 55% 29.71 in 10.0 mi South 13.8 mph 27.6 mph N/A Rain Light Rain
4:35 PM 51.3 °F - 41.7 °F 70% 29.72 in 7.0 mi South 10.4 mph 19.6 mph N/A Rain Rain
4:55 PM 49.1 °F - 43.5 °F 81% 29.72 in 7.0 mi South 10.4 mph 18.4 mph N/A Rain Light Rain
5:35 PM 48.4 °F - 43.7 °F 84% 29.68 in 5.0 mi SE 6.9 mph - N/A Rain Light Rain
5:55 PM 48.4 °F - 44.1 °F 85% 29.68 in 7.0 mi Calm Calm - N/A Rain Light Rain
6:15 PM 48.7 °F - 43.9 °F 83% 29.68 in 10.0 mi South 5.8 mph - N/A Rain Rain
6:35 PM 48.4 °F - 44.2 °F 86% 29.66 in 7.0 mi SSE 10.4 mph - N/A Rain Rain
6:55 PM 48.4 °F - 44.2 °F 86% 29.66 in 10.0 mi SSE 8.1 mph 16.1 mph N/A   Overcast
7:15 PM 48.4 °F - 44.2 °F 86% 29.64 in 10.0 mi South 9.2 mph - N/A   Overcast
7:35 PM 48.6 °F - 44.4 °F 86% 29.64 in 10.0 mi South 8.1 mph 18.4 mph N/A   Overcast
7:55 PM 48.9 °F - 44.8 °F 86% 29.64 in 10.0 mi South 9.2 mph 16.1 mph N/A   Overcast
8:15 PM 49.1 °F - 45.0 °F 86% 29.64 in 10.0 mi SSW 8.1 mph 19.6 mph N/A   Overcast
8:35 PM 49.1 °F - 45.0 °F 86% 29.65 in 10.0 mi South 9.2 mph - N/A   Overcast
8:55 PM 49.1 °F - 45.0 °F 86% 29.65 in 10.0 mi South 8.1 mph - N/A   Overcast
9:15 PM 49.5 °F - 45.5 °F 86% 29.65 in 10.0 mi SSW 6.9 mph - N/A   Overcast
9:35 PM 49.6 °F - 45.7 °F 86% 29.65 in 10.0 mi South 4.6 mph - N/A   Overcast
9:55 PM 50.0 °F - 45.9 °F 86% 29.65 in 10.0 mi SSW 9.2 mph 17.3 mph N/A   Overcast
10:15 PM 50.0 °F - 46.0 °F 86% 29.66 in 7.0 mi WSW 8.1 mph - N/A   Overcast
10:35 PM 50.0 °F - 46.4 °F 87% 29.66 in 7.0 mi South 3.5 mph - N/A   Overcast
10:55 PM 49.5 °F - 45.9 °F 87% 29.66 in 7.0 mi Calm Calm - N/A   Mostly Cloudy
11:15 PM 49.1 °F - 45.5 °F 87% 29.65 in 7.0 mi Calm Calm - N/A   Scattered Clouds
11:35 PM 48.7 °F - 45.3 °F 88% 29.65 in 7.0 mi Calm Calm - N/A   Scattered Clouds
11:55 PM 47.7 °F - 44.8 °F 90% 29.65 in 2.5 mi Calm Calm - N/A   Mostly Cloudy